Previsão horária em Plonkowo

Hoje, 4 Março, Quinta-feira

Tempo Temperatura Precipitação Vento Pressão Humidade
00:00 +3°C° 0 mm 3 m/s 755 mmHg 88%
01:00 +2°C° 0 mm 3 m/s 754 mmHg 90%
02:00 +3°C° 0 mm 3 m/s 754 mmHg 91%
03:00 +3°C° 0 mm 4 m/s 753 mmHg 91%
04:00 +4°C° 0 mm 4 m/s 753 mmHg 92%
05:00 +4°C° 0 mm 4 m/s 753 mmHg 92%
06:00 +4°C° 0 mm 4 m/s 752 mmHg 92%
07:00 +4°C° 0 mm 4 m/s 752 mmHg 92%
08:00 +3°C° 0 mm 5 m/s 752 mmHg 86%
09:00 +3°C° 0 mm 5 m/s 752 mmHg 81%
10:00 +3°C° 0 mm 6 m/s 753 mmHg 75%
11:00 +3°C° 0 mm 5 m/s 752 mmHg 75%
12:00 +3°C° 0 mm 5 m/s 752 mmHg 75%
13:00 +2°C° 0 mm 5 m/s 752 mmHg 75%
14:00 +2°C° 0 mm 5 m/s 752 mmHg 76%
15:00 +1°C° 0 mm 4 m/s 752 mmHg 77%
16:00 +1°C° 0 mm 4 m/s 751 mmHg 78%
17:00 0°C° 0 mm 4 m/s 752 mmHg 81%
18:00 0°C° 0 mm 4 m/s 752 mmHg 84%
19:00 +1°C° 0 mm 3 m/s 752 mmHg 87%
20:00 -1°C° 0.2 mm 4 m/s 752 mmHg 87%
21:00 -2°C° 0.2 mm 4 m/s 753 mmHg 87%
22:00 -2°C° 0.2 mm 4 m/s 753 mmHg 87%
23:00 -3°C° 0 mm 4 m/s 753 mmHg 87%

Amanhã, 5 Março, Sexta-feira

Tempo Temperatura Precipitação Vento Pressão Humidade
00:00 -2°C° 0 mm 3 m/s 754 mmHg 86%
01:00 -2°C° 0 mm 3 m/s 754 mmHg 86%
02:00 -2°C° 0 mm 3 m/s 754 mmHg 85%
03:00 -4°C° 0 mm 3 m/s 755 mmHg 85%
04:00 -4°C° 0 mm 3 m/s 755 mmHg 85%
05:00 -4°C° 0 mm 3 m/s 755 mmHg 84%
06:00 -4°C° 0 mm 3 m/s 756 mmHg 83%
07:00 -4°C° 0 mm 3 m/s 756 mmHg 82%
08:00 -1°C° 0 mm 3 m/s 757 mmHg 73%
09:00 -1°C° 0 mm 4 m/s 757 mmHg 64%
10:00 0°C° 0 mm 4 m/s 757 mmHg 54%
11:00 +1°C° 0.1 mm 4 m/s 758 mmHg 50%
12:00 +1°C° 0.1 mm 4 m/s 758 mmHg 45%
13:00 +3°C° 0.1 mm 4 m/s 758 mmHg 41%
14:00 +3°C° 0.2 mm 4 m/s 758 mmHg 43%
15:00 +1°C° 0.2 mm 4 m/s 758 mmHg 45%
16:00 +1°C° 0.2 mm 4 m/s 759 mmHg 47%
17:00 +1°C° 0.1 mm 3 m/s 759 mmHg 54%
18:00 0°C° 0.1 mm 3 m/s 760 mmHg 61%
19:00 -1°C° 0.1 mm 3 m/s 760 mmHg 67%
20:00 -2°C° 0 mm 3 m/s 761 mmHg 71%
21:00 -2°C° 0 mm 3 m/s 761 mmHg 74%
22:00 -4°C° 0 mm 3 m/s 762 mmHg 78%
23:00 -4°C° 0 mm 3 m/s 762 mmHg 79%

Depois de amanhã, 6 Março, Sábado

Tempo Temperatura Precipitação Vento Pressão Humidade
00:00 -4°C° 0 mm 3 m/s 763 mmHg 79%
01:00 -4°C° 0 mm 3 m/s 763 mmHg 80%
02:00 -3°C° 0 mm 2 m/s 763 mmHg 78%
03:00 -3°C° 0 mm 2 m/s 763 mmHg 76%
04:00 -3°C° 0 mm 2 m/s 763 mmHg 75%
05:00 -3°C° 0 mm 2 m/s 764 mmHg 74%
06:00 -4°C° 0 mm 3 m/s 764 mmHg 73%
07:00 -4°C° 0 mm 3 m/s 764 mmHg 72%
08:00 -2°C° 0 mm 3 m/s 764 mmHg 63%
09:00 0°C° 0 mm 3 m/s 764 mmHg 54%
10:00 0°C° 0 mm 4 m/s 764 mmHg 45%
11:00 +1°C° 0 mm 4 m/s 764 mmHg 43%
12:00 +1°C° 0 mm 5 m/s 764 mmHg 42%
13:00 +2°C° 0 mm 5 m/s 764 mmHg 40%
14:00 +2°C° 0 mm 5 m/s 763 mmHg 41%
15:00 +2°C° 0 mm 5 m/s 763 mmHg 42%
16:00 +1°C° 0 mm 5 m/s 762 mmHg 43%
17:00 0°C° 0 mm 5 m/s 762 mmHg 48%
18:00 -1°C° 0 mm 5 m/s 761 mmHg 53%
19:00 -2°C° 0 mm 5 m/s 761 mmHg 58%
20:00 -2°C° 0 mm 5 m/s 761 mmHg 62%
21:00 -3°C° 0 mm 6 m/s 760 mmHg 66%
22:00 -3°C° 0 mm 6 m/s 760 mmHg 70%
23:00 -2°C° 0 mm 6 m/s 760 mmHg 73%

7 Março, Domingo

Tempo Temperatura Precipitação Vento Pressão Humidade
00:00 -2°C° 0 mm 6 m/s 759 mmHg 76%
01:00 -2°C° 0 mm 6 m/s 759 mmHg 79%
02:00 -2°C° 0 mm 7 m/s 758 mmHg 78%
03:00 -2°C° 0 mm 7 m/s 758 mmHg 77%
04:00 -2°C° 0 mm 7 m/s 757 mmHg 76%
05:00 -2°C° 0 mm 7 m/s 757 mmHg 78%
06:00 -3°C° 0 mm 7 m/s 757 mmHg 80%
07:00 -3°C° 0 mm 7 m/s 756 mmHg 82%
08:00 -3°C° 0 mm 7 m/s 756 mmHg 81%
09:00 -3°C° 0 mm 7 m/s 756 mmHg 80%
10:00 -3°C° 0 mm 7 m/s 756 mmHg 79%
11:00 -2°C° 0 mm 7 m/s 756 mmHg 76%
12:00 -1°C° 0 mm 7 m/s 756 mmHg 74%
13:00 -1°C° 0 mm 7 m/s 755 mmHg 71%
14:00 -1°C° 0 mm 7 m/s 755 mmHg 71%
15:00 -1°C° 0 mm 7 m/s 755 mmHg 72%
16:00 -1°C° 0 mm 6 m/s 755 mmHg 73%
17:00 -2°C° 0 mm 6 m/s 755 mmHg 78%
18:00 -2°C° 0 mm 5 m/s 755 mmHg 83%
19:00 -2°C° 0 mm 5 m/s 755 mmHg 88%
20:00 -2°C° 0.2 mm 4 m/s 755 mmHg 90%
21:00 -2°C° 0.2 mm 4 m/s 755 mmHg 93%
22:00 -2°C° 0.2 mm 4 m/s 755 mmHg 95%
23:00 -3°C° 0.4 mm 4 m/s 755 mmHg 93%

8 Março, Segunda-feira

Tempo Temperatura Precipitação Vento Pressão Humidade
00:00 -2°C° 0.4 mm 3 m/s 755 mmHg 90%
01:00 -3°C° 0.4 mm 2 m/s 755 mmHg 88%
02:00 -3°C° 0 mm 2 m/s 755 mmHg 86%
03:00 -3°C° 0 mm 2 m/s 756 mmHg 85%
04:00 -2°C° 0 mm 1 m/s 756 mmHg 83%
05:00 -2°C° 0 mm 1 m/s 756 mmHg 81%
06:00 -2°C° 0 mm 1 m/s 756 mmHg 79%
07:00 -2°C° 0 mm 1 m/s 757 mmHg 77%
08:00 -3°C° 0 mm 2 m/s 757 mmHg 71%
09:00 -1°C° 0 mm 2 m/s 758 mmHg 65%
10:00 +1°C° 0 mm 2 m/s 758 mmHg 59%
11:00 +1°C° 0 mm 2 m/s 759 mmHg 57%
12:00 +2°C° 0 mm 2 m/s 759 mmHg 55%
13:00 +2°C° 0 mm 2 m/s 759 mmHg 53%
14:00 +2°C° 0 mm 2 m/s 759 mmHg 54%
15:00 +2°C° 0 mm 2 m/s 759 mmHg 56%
16:00 +2°C° 0 mm 2 m/s 759 mmHg 58%
17:00 -1°C° 0 mm 2 m/s 759 mmHg 65%
18:00 -2°C° 0 mm 2 m/s 759 mmHg 72%
19:00 -3°C° 0 mm 2 m/s 760 mmHg 79%
20:00 -3°C° 0 mm 2 m/s 760 mmHg 80%
21:00 -4°C° 0 mm 2 m/s 760 mmHg 82%
22:00 -4°C° 0 mm 2 m/s 761 mmHg 83%
23:00 -4°C° 0 mm 2 m/s 761 mmHg 82%

9 Março, Terça-feira

Tempo Temperatura Precipitação Vento Pressão Humidade
00:00 -4°C° 0 mm 2 m/s 761 mmHg 81%
01:00 -4°C° 0 mm 2 m/s 761 mmHg 80%
02:00 -4°C° 0 mm 2 m/s 761 mmHg 79%
03:00 -4°C° 0 mm 2 m/s 761 mmHg 79%
04:00 -2°C° 0 mm 1 m/s 760 mmHg 79%
05:00 -4°C° 0 mm 2 m/s 760 mmHg 78%
06:00 -4°C° 0 mm 2 m/s 761 mmHg 76%
07:00 -4°C° 0 mm 2 m/s 761 mmHg 75%
08:00 -3°C° 0 mm 2 m/s 761 mmHg 69%
09:00 -2°C° 0 mm 3 m/s 761 mmHg 63%
10:00 -1°C° 0 mm 3 m/s 761 mmHg 57%
11:00 0°C° 0 mm 3 m/s 761 mmHg 52%
12:00 +1°C° 0 mm 3 m/s 761 mmHg 48%
13:00 +1°C° 0 mm 3 m/s 761 mmHg 44%
14:00 +1°C° 0 mm 3 m/s 760 mmHg 45%
15:00 +1°C° 0 mm 3 m/s 760 mmHg 46%
16:00 +1°C° 0 mm 3 m/s 759 mmHg 47%
17:00 0°C° 0 mm 3 m/s 760 mmHg 51%
18:00 -2°C° 0 mm 3 m/s 760 mmHg 56%
19:00 -4°C° 0 mm 3 m/s 760 mmHg 60%
20:00 -4°C° 0 mm 4 m/s 760 mmHg 59%
21:00 -4°C° 0 mm 4 m/s 760 mmHg 58%
22:00 -5°C° 0 mm 4 m/s 760 mmHg 57%
23:00 -5°C° 0 mm 4 m/s 760 mmHg 57%
Mostrar mais

Necessitamos do seu Consentimento

A Meteoprog e os seus Fornecedores de Serviços podem armazenar e aceder a dados pessoais como cookies, identificadores do dispositivo ou outras tecnologias semelhantes existentes no seu dispositivo e processar estes dados para personalizar conteúdos e anúncios, assim como funcionalidades nas redes sociais e análise de tráfego.

  • Armazenar e/ou aceder a informações no seu dispositivo

    Os cookies, identificadores do dispositivo ou outras informações podem ser armazenados ou acedidos no seu dispositivo, para os fins acima indicados.

  • Anúncios e conteúdos personalizados, medição de anúncios e conteúdos, dados sobre o público-alvo e desenvolvimento de produtos

    Os anúncios e os conteúdos podem ser personalizados com base num perfil. Podem ser adicionados dados adicionais para uma maior personalização dos anúncios e dos conteúdos. A eficácia dos anúncios e dos conteúdos pode ser medida. Podem ser obtidas informações sobre o público que visualizou os anúncios e os conteúdos. Estes dados podem ser usados para desenvolver ou melhorar sistemas, softwares ou a experiência do utilizador.

Ao clicar em "Eu concordo”, permitirá o uso de cookies, identificadores do dispositivo e web beacons mencionados ou outras tecnologias semelhantes. As configurações do navegador do seu dispositivo podem ser alteradas.

Para certos fins, podem ser invocados interesses legítimos ao invés de consentimento. Pode ler mais informação sobre este assunto na nossa Política de Privacidade e Cookies.